sat.trackr.live / text

‹ back to catalog

STARLINK-11555 [DTC]

NORAD 62915 · 2025-027J

PAYLOAD ACTIVE UNKNOWN

§ Identity

Operator
Country
US
Launch date
2025-02-08
Launch site
AFETR
Launch vehicle
Mass (kg)
RCS (m²)

Purposes: comms

External: N2YO · Heavens-Above · Gunter

§ Orbital elements

Epoch: 2026-05-24T16:48:59.604768Z

Period
91.67 min
Inclination
43.0004°
Eccentricity
0.0001574
Mean motion
15.70825288 rev/d
Perigee alt
355.5 km
Apogee alt
357.6 km
Semi-major
6,734.7 km
B*
1.2036e-3
RAAN
249.7661°
Arg perigee
293.1407°
Mean anomaly
66.9294°
Rev number
7,514

§ Raw data

STARLINK-11555 [DTC]1 62915U 25027J   26144.70068987  .00156846  00000+0  12036-2 0  99942 62915  43.0004 249.7661 0001574 293.1407  66.9294 15.70825288 75143

JSON: /api/v1/satellites/62915 · /tle

For live sub-satellite position, see the globe view (requires WebGL).

§ Visibility from observer

Set your observer location to see the next 7 days of passes ≥ 10°. The values pass through the URL so the page stays shareable.

No JS? Fill the form by hand. The geolocation button needs JavaScript.